This is the latest recevied weather packets stored in our database for station/object AA7F. If no packets are shown the sender has not sent any weather packets the latest 10 day(s).
| Time | Temp. | Humidity | Pressure | Rain* | Wind** | Luminosity | Snow |
|---|---|---|---|---|---|---|---|
| 1777579687 | 21.67° C | 40% | 1019.4 hPa | 0 mm | - | 686 W/m² | - |
| 1777579081 | 21.67° C | 43% | 1019.5 hPa | 0 mm | - | 695 W/m² | - |
| 1777577255 | 20.56° C | 44% | 1019.7 hPa | 0 mm | - | 726 W/m² | - |
| 1777576647 | 20.56° C | 44% | 1020.1 hPa | 0 mm | - | 735 W/m² | - |
| 1777574216 | 19.44° C | 50% | 1020.9 hPa | 0 mm | - | 806 W/m² | - |
| 1777573911 | 18.89° C | 52% | 1020.5 hPa | 0 mm | - | 803 W/m² | - |
| 1777572694 | 17.78° C | 51% | 1021.1 hPa | 0 mm | - | 868 W/m² | - |
| 1777572394 | 17.78° C | 54% | 1021.4 hPa | 0 mm | - | 877 W/m² | - |
| 1777571185 | 17.22° C | 56% | 1021.6 hPa | 0 mm | - | 822 W/m² | - |
| 1777570576 | 16.67° C | 58% | 1021.7 hPa | 0 mm | - | 792 W/m² | - |
| 1777569969 | 16.11° C | 57% | 1021.9 hPa | 0 mm | - | 785 W/m² | - |
| 1777569665 | 16.11° C | 58% | 1021.6 hPa | 0 mm | - | 766 W/m² | - |
| 1777569361 | 15.56° C | 58% | 1021.7 hPa | 0 mm | - | 760 W/m² | - |
| 1777569057 | 15.56° C | 59% | 1021.8 hPa | 0 mm | - | 747 W/m² | - |
| 1777568754 | 15° C | 60% | 1021.9 hPa | 0 mm | - | 726 W/m² | - |
| 1777567541 | 14.44° C | 61% | 1022 hPa | 0 mm | - | 652 W/m² | - |
| 1777566937 | 13.33° C | 62% | 1022 hPa | 0 mm | - | 615 W/m² | - |
| 1777566332 | 13.33° C | 66% | 1022.1 hPa | 0 mm | - | 586 W/m² | - |
| 1777566029 | 12.78° C | 68% | 1022.3 hPa | 0 mm | - | 572 W/m² | - |
| 1777565421 | 12.22° C | 71% | 1022.3 hPa | 0 mm | - | 540 W/m² | - |
| 1777564814 | 11.67° C | 70% | 1022.5 hPa | 0 mm | - | 474 W/m² | - |
| 1777563296 | 10.56° C | 76% | 1022.7 hPa | 0 mm | - | 342 W/m² | - |
| 1777562993 | 10° C | 76% | 1022.9 hPa | 0 mm | - | 334 W/m² | - |
| 1777562079 | 9.44° C | 79% | 1022.9 hPa | 0 mm | - | 277 W/m² | - |
| 1777561472 | 8.89° C | 81% | 1022.8 hPa | 0 mm | - | 261 W/m² | - |
* Rain latest hour (hover to see other rain measurements)
** Current wind speed in m/s (hover to see current wind gust speed)